Regional Weather Roundup
Issued by NWS

Home | Current Version | Previous Version | Text Only | Print | Product List | Glossary Off
Versions: 1 2 3 4 5 6 7 8 9 10 11 12 13 14 15 16 17 18 19 20 21 22 23 24 25 26 27 28 29 30 31 32 33 34 35 36 37 38 39 40 41 42 43 44 45 46 47 48 49 50

000
ASUS45 KCYS 301610
RWRWY

WYOMING REGIONAL WEATHER ROUNDUP
NATIONAL WEATHER SERVICE CHEYENNE WY
1000 AM MDT SUN AUG 30 2015

NOTE:  "FAIR" INDICATES FEW OR NO CLOUDS BELOW 12,000 FEET
WITH NO SIGNIFICANT WEATHER AND/OR OBSTRUCTIONS TO VISIBILITY.

WYZ001-301700-
YELLOWSTONE NATIONAL PARK

CITY           SKY/WX    TMP DP  RH WIND       PRES   REMARKS
LK YELLOWSTONE   N/A     59  47  64 VRB5      30.20R
W YELLOWSTONE  NOT AVBL

$$
WYZ002>013-054>058-071-098>099-301700-
NORTHERN WYOMING

CITY           SKY/WX    TMP DP  RH WIND       PRES   REMARKS
JACKSON        FAIR      70  43  37 S14       30.12S
CODY           FAIR      73  48  40 CALM      29.95R
GREYBULL       FAIR      79  45  29 S6        29.87S
WORLAND        FAIR      78  40  25 S12       29.89S
SHERIDAN       FAIR      75  48  38 NE3       29.85S
BUFFALO        FAIR      82  40  22 SE12      29.94S
GILLETTE       FAIR      84  43  23 S10       29.90S
HULETT         FAIR      82  39  21 SW12      29.91S
NEWCASTLE      FAIR      81  39  22 SE9       29.93S

$$
WYZ014>020-022>026-101>103-301700-
CENTRAL WYOMING

CITY           SKY/WX    TMP DP  RH WIND       PRES   REMARKS
BIG PINEY      FAIR      68  42  38 N5        30.17F
PINEDALE       PTSUNNY   63  37  39 NW6       30.19S
DUBOIS         FAIR      66  43  42 N10G16    30.12S
LANDER         FAIR      78  46  32 E7        29.99F
RIVERTON       FAIR      75  43  31 S5        30.01S
CASPER         FAIR      84  31  14 SW24G31   30.02S
DOUGLAS        FAIR      85  35  16 VRB5      30.00S

$$
WYZ021-027>030-104>119-301700-
SOUTHERN WYOMING

CITY           SKY/WX    TMP DP  RH WIND       PRES   REMARKS
EVANSTON       FAIR      73  43  33 SW12      30.18R
KEMMERER       FAIR      70  39  32 SW10      30.18S
FORT BRIDGER   SUNNY     77  43  29 W12G20    30.20S
ROCK SPRINGS   FAIR      77  38  24 SW13      30.16R
DIXON          FAIR      78  33  19 S12G18    30.21F
RAWLINS        FAIR      81  34  18 SW17G25   30.17S
SARATOGA       FAIR      75  37  25 CALM      30.22S
LARAMIE        FAIR      76  36  23 SW21G26   30.22S
CHEYENNE       FAIR      85  36  17 W14       30.14S
TORRINGTON     FAIR      75  47  36 SE7       29.97F
PINE BLUFFS    FAIR      79  41  25 S8        30.07S

$$



USA.gov is the U.S. government's official web portal to all federal, state and local government web resources and services.